Regional Weather Roundup
Issued by NWS Newport/Morehead, NC

Current Version | Previous Version | Text Only | Print | Product List | Glossary Off
Versions: 1 2 3 4 5 6 7 8 9 10 11 12 13 14 15 16 17 18 19 20 21 22 23 24 25 26 27 28 29 30 31 32 33 34 35 36 37 38 39 40 41 42 43 44 45 46 47 48 49 50
000 ASUS42 KMHX 281610 RWRMHX WEATHER ROUNDUP FOR EASTERN NORTH CAROLINA NATIONAL WEATHER SERVICE NEWPORT/MOREHEAD CITY NC 1100 AM EST SUN DEC 28 2014 NOTE: "FAIR" INDICATES FEW OR NO CLOUDS BELOW 12,000 FEET WITH NO SIGNIFICANT WEATHER AND/OR OBSTRUCTIONS TO VISIBILITY NCZ015>017-031-032-045>047-102-103-281700- NORTH COAST CITY SKY/WX TMP DP RH WIND PRES REMARKS EDENTON CLOUDY 60 53 77 SW7 30.06F ELIZABETH CITY CLOUDY 63 53 70 SW10 30.05F KITTY HAWK CLOUDY 60 57 88 SW7 30.04F MANTEO CLOUDY 57 54 88 SW8 30.06F $$ NCZ045>047-081-094-103-104-281700- CENTRAL COAST CITY SKY/WX TMP DP RH WIND PRES REMARKS FRISCO PTSUNNY 65 60 84 SW9 30.09F SWANQUARTER N/A 57 N/A N/A SW7 30.03F $$ NCZ095-097-098-100-101-281700- SOUTHERN COAST CITY SKY/WX TMP DP RH WIND PRES REMARKS BEAUFORT CLOUDY 62 58 86 W10 30.10F CEDAR ISLAND N/A 66 N/A N/A SW8G15 30.12F JACKSONVILLE PTSUNNY 66 56 70 SW6 30.08F PINEY ISLAND PTSUNNY 69 58 67 SW13 30.09F WILMINGTON MOSUNNY 70 57 63 S17G25 30.08F $$ NCZ011>013-027>030-043-044-078>080-089-090>093-098-281700- COASTAL PLAIN CITY SKY/WX TMP DP RH WIND PRES REMARKS AHOSKIE CLOUDY 61 52 71 SW3 30.05F CLINTON CLOUDY 58 56 92 CALM 30.09F ELIZABETHTOWN PTSUNNY 62 54 74 SW7 30.09F GOLDSBORO CLOUDY 62 61 98 SW8 30.06F GREENVILLE PTSUNNY 63 54 72 SW8 30.08F HAVELOCK PTSUNNY 67 56 67 SW10 30.10F KENANSVILLE CLOUDY 59 53 82 CALM 30.09F KINSTON CLOUDY 63 54 72 SW10 30.09F NEW BERN CLOUDY 64 56 75 SW7 30.10F RICHLANDS CLOUDY 63 54 72 SW8 30.09F ROCKY MOUNT PTSUNNY 62 54 74 SW15G22 30.06F WASHINGTON PTSUNNY 62 55 77 SW9 30.07F WHITEVILLE PTSUNNY 68 58 69 SW10G17 30.09F $$ AMZ130-135-150-152-154-156-158-170-250-252-270-ANZ085-086-088-633-658-670-281700- MARINE OBSERVATIONS STATION/POSITION TIME TEMP WIND PRES WAVE SWELL AIR SEA DIR/SP/G HT/PER HT/PER (UTC) (F) (DEG/KT/KT) (MB) (FT/S) (FT/S) CHESAPEAKE LIGHT 1500 55 230/ 15/ 15 1018.5 64 E VA BEACH 1600 56 53 220/ 12/ 12 1017.3 3/13 2/13 DUCK 1600 57 49 200/ 10/ 11 1017.0 2 E DUCK 1600 48 N/A 2/13 2/13 10 NE DUCK 1600 50 N/A 3/14 2/14 OREGON INLET 1600 54 53 200/ 9/ 11 1018.5 13E OREGON INLT 1600 53 N/A 2/14 2/14 HATTERAS CG 1600 64 54 230/ 8/ 13 1019.3 DIAMOND BUOY 1600 72 1018.7 4/14 17 S OCRACOKE NOT AVBL CAPE LOOKOUT 1500 65 220/ 11/ 15 1019.8 BEAUFORT LAB 1600 63 54 240/ 4/ 9 1018.5 30 SE NEW RIVER 1600 63 61 240/ 10/ 12 1020.0 3/14 2/14 5 SE WRIGHTSVLE NOT AVBL 225 S CAPE HAT 1543 73 75 210/ 16/ 19 1022.2 5/14 5/14 41 SE CHARLESTON 1600 72 74 220/ 10/ 12 1020.2 3/14 2/14 $$

USA.gov is the U.S. government's official web portal to all federal, state and local government web resources and services.